User: anonymous   Login
Location: Unspecified
(0.0000°N, 0.0000°E)
Time: 19:51:54
(UTC+00:00)
Language:

Nova 3 - Orbit

View from above orbital plane
View from above orbital plane
View from above satellite
View from above satellite

Ground track
Ground track

The orbit data is extracted from the following two-line orbital elements,

1 15362U 84110A   17268.95107941 +.00000041 +00000-0 +78692-4 0  9992
2 15362 090.0474 055.2754 0030642 319.1915 156.9006 13.22738213590390
Epoch (UTC): 25 September 2017 22:49:33
Eccentricity: 0.0030642
inclination: 90.0474°
perigee height: 1151 km
apogee height: 1197 km
right ascension of ascending node: 55.2754°
argument of perigee: 319.1915°
revolutions per day: 13.22738213
mean anomaly at epoch: 156.9006°
orbit number at epoch: 59039

The dashed part of the orbit path shows where the satellite is in the earth's shadow,  

DLR